Weather History for PHBK - October, 2011

Change the Weather History Date:

Tuesday, October 11, 2011

  Actual Average Record
Temperature  
Mean Temperature 78 °F -  
Max Temperature 84 °F 87 °F 90 °F (1954)
Min Temperature 73 °F 67 °F 62 °F (1959)
Cooling Degree Days 14    
Growing Degree Days 28 (Base 50)    
Moisture  
Dew Point 63 °F    
Average Humidity 59    
Maximum Humidity 68    
Minimum Humidity 53    
Precipitation  
Precipitation 0.00 in - - ()
Sea Level Pressure  
Sea Level Pressure 30.00 in    
Wind  
Wind Speed 4 mph (NE)    
Max Wind Speed 10 mph    
Max Gust Speed -    
Visibility 10 miles    
Events      
Averages and records for this station are not official NWS values.
T = Trace of Precipitation, MM = Missing Value Source: NWS Daily Summary

Daily Weather History Graph

Daily Weather History Graph

Search for Another Location

Airport or City:

Trip Planner

Search our weather history database for the weather conditions in past years. The results will help you decide how hot, cold, wet, or windy it might be!

Date:

Astronomy

Oct. 11, 2011 Rise Set
Actual Time 6:33 AM HST 6:17 PM HST
Civil Twilight 6:11 AM HST 6:40 PM HST
Nautical Twilight 5:45 AM HST 7:05 PM HST
Astronomical Twilight 5:19 AM HST 7:31 PM HST
Moon 6:03 PM HST (10/11) 6:17 AM HST (10/11)
Length of Visible Light 12h 28m
Length of Day
11h 43m
Full, 100% of the Moon is Illuminated
Oct 11
Full
Oct 11
Full
Oct 19
Last Quarter
Oct 26
New
Nov 2
First Quarter

Hourly Weather History & Observations

Time (HST) Temp. Heat Index Dew Point Humidity Pressure Visibility Wind Dir Wind Speed Gust Speed Precip Events Conditions
12:56 AM 75.9 °F - 63.0 °F 64% 30.05 in 10.0 mi ESE 4.6 mph - N/A   Overcast
1:56 AM 77.0 °F - 63.0 °F 62% 30.03 in 10.0 mi Calm Calm - N/A   Clear
2:56 AM 75.0 °F - 62.1 °F 64% 30.01 in 10.0 mi NE 3.5 mph - N/A   Clear
3:56 AM 73.0 °F - 60.1 °F 64% 30.00 in 10.0 mi ENE 3.5 mph - N/A   Clear
4:56 AM 73.0 °F - 60.1 °F 64% 30.01 in 10.0 mi East 4.6 mph - N/A   Clear
5:56 AM 73.0 °F - 60.1 °F 64% 30.01 in 10.0 mi East 4.6 mph - N/A   Clear
6:56 AM 73.0 °F - 62.1 °F 68% 30.02 in 10.0 mi ENE 3.5 mph - N/A   Clear
7:56 AM 78.1 °F - 64.0 °F 62% 30.02 in 10.0 mi Calm Calm - N/A   Clear
8:56 AM 81.0 °F 82.7 °F 64.9 °F 58% 30.04 in 10.0 mi WSW 4.6 mph - N/A   Clear
9:56 AM 82.0 °F 84.1 °F 66.0 °F 58% 30.04 in 10.0 mi West 5.8 mph - N/A   Clear
10:56 AM 82.9 °F 85.0 °F 66.0 °F 56% 30.03 in 10.0 mi West 8.1 mph - N/A   Mostly Cloudy
11:56 AM 82.9 °F 85.0 °F 66.0 °F 56% 30.02 in 10.0 mi WNW 9.2 mph - N/A   Overcast
12:56 PM 82.9 °F 84.4 °F 64.0 °F 53% 29.99 in 10.0 mi NW 8.1 mph - N/A   Scattered Clouds
1:56 PM 84.0 °F 85.8 °F 64.9 °F 53% 29.96 in 10.0 mi NW 8.1 mph - N/A   Mostly Cloudy
2:56 PM 84.0 °F 85.8 °F 64.9 °F 53% 29.95 in 10.0 mi WSW 6.9 mph - N/A   Scattered Clouds
3:56 PM 84.9 °F 87.1 °F 66.0 °F 53% 29.94 in 10.0 mi SW 10.4 mph - N/A   Clear
4:56 PM 82.9 °F 85.0 °F 66.0 °F 56% 29.95 in 10.0 mi SSW 8.1 mph - N/A   Clear
5:56 PM 82.0 °F 84.1 °F 66.0 °F 58% 29.96 in 10.0 mi SSW 8.1 mph - N/A   Mostly Cloudy
6:56 PM 81.0 °F 82.7 °F 64.9 °F 58% 29.99 in 10.0 mi Calm Calm - N/A   Mostly Cloudy
7:56 PM 80.1 °F 81.9 °F 64.9 °F 60% 30.01 in 10.0 mi Calm Calm - N/A   Mostly Cloudy
8:56 PM 78.1 °F - 64.9 °F 64% 30.01 in 10.0 mi NNE 4.6 mph - N/A   Clear
9:56 PM 75.0 °F - 63.0 °F 66% 30.02 in 10.0 mi NE 3.5 mph - N/A   Clear
10:56 PM 73.9 °F - 59.0 °F 59% 30.02 in 10.0 mi East 4.6 mph - N/A   Clear
11:56 PM 73.9 °F - 57.0 °F 55% 30.01 in 10.0 mi East 3.5 mph - N/A   Clear